Погода в Данвилле

США     36°35′09″N   79°23′43″W
темп.,
°C
ветер,
м/с
пор.,
м/с
влажн.,
%
обл.,
%
осадки,
мм/ч
давл.,
гПа
погр.,
м
21 октября, чт
чт2123:00+14зюз22526 0.0 102121
02:00+12зюз2256100 0.0 102036
05:00+11зюз22625 0.0 102031
08:00+11зюз24675 0.0 102072
11:00+21юз23400 0.0 1019454
14:00+26ююз34290 0.0 10161365
17:00+25ююз47368 0.0 10141501
20:00+19ююз312609 0.0 1014295
22 октября, пт
пт2223:00+20юз514717 0.3 1014854
02:00+17юз311956 1.2 1014402
05:00+15зюз2499100 0.7 1014112
08:00+16сз1297100 0.7 101464
11:00+17ссз356654 0.0 1016508
14:00+21зсз234494 0.0 10141219
17:00+21з2447100 0.0 10131627
20:00+15ссз310600 0.0 1015261
23 октября, сб
сб2323:00+12с28730 0.0 1016203
02:00+11сз11735 0.0 101612
05:00+10сз23762 0.0 101650
08:00+10зсз23780 0.0 101869
11:00+18сз34460 0.0 1019982
14:00+22сз25365 0.0 10171717
17:00+22зюз14352 0.0 10161762
20:00+15з116015 0.0 101811
24 октября, вс
вс2423:00+13зюз11669 0.0 101910
02:00+12юз12705 0.0 101912
05:00+11юз117511 0.0 102012
08:00+11ююз25785 0.0 1020111
11:00+21юз48465 0.0 1021712
14:00+25юз58335 0.0 10181410
17:00+25ююз49355 0.0 10171547
20:00+18ююз36550 0.0 101885
25 октября, пн
пн2523:00+16ююз312593 0.0 1018243
02:00+14ююз311661 0.0 1018233
05:00+14юз314695 0.0 1017366
08:00+14юз3137092 0.0 1017403
11:00+22юз594632 0.0 1016581
14:00+26юз573791 0.0 10131014
17:00+26зюз49425 0.0 10111218
20:00+21юз3963100 0.0 1011226